Regional Weather Roundup
Issued by NWS Green Bay, WI

Home | Current Version | Previous Version | Text Only | Print | Product List | Glossary On
Versions: 1 2 3 4 5 6 7 8 9 10 11 12 13 14 15 16 17 18 19 20 21 22 23 24 25 26 27 28 29 30 31 32 33 34 35 36 37 38 39 40 41 42 43 44 45 46 47 48 49 50
175
ASUS43 KGRB 251911
RWRGRB

NORTH-CENTRAL AND NORTHEAST WISCONSIN REGIONAL WEATHER ROUNDUP
NATIONAL WEATHER SERVICE GREEN BAY WI
200 PM CDT TUE JUL 25 2017

WIZ005-009-010>012-018-019-252000-
NORTH CENTRAL WISCONSIN

CITY           SKY/WX    TMP DP  RH WIND       PRES   REMARKS
IRONWOOD       MOSUNNY   74  58  57 S10G20    30.05F
MANITOWISH WTR MOSUNNY   74  58  57 S13G20    30.08F
ARBOR VITAE    SUNNY     74  57  54 S15G21    30.10S
EAGLE RIVER    SUNNY     74  43  32 SW9G16    30.11F
LAND O LAKES   SUNNY     75  45  34 S10G16    30.13F
RHINELANDER    MOSUNNY   72  51  47 S13G20    30.12F
PHILLIPS       CLOUDY    73  60  65 S10       30.08F
ANTIGO         MOSUNNY   67  56  66 S9        30.13F
TOMAHAWK         N/A     68  55  61 S5        30.12S
MERRILL        CLOUDY    71  58  64 SE12      30.11F
$$

WIZ013-073-252000-
NORTHEAST WISCONSIN

CITY           SKY/WX    TMP DP  RH WIND       PRES   REMARKS
IRON MOUNTAIN  MOSUNNY   72  53  51 S9        30.13F
MARINETTE      CLOUDY    73  61  65 SW10      30.15F
OCONTO         CLOUDY    74  61  63 S8        30.15F
$$

WIZ017-030-035>037-045-252000-
CENTRAL WISCONSIN

CITY           SKY/WX    TMP DP  RH WIND       PRES   REMARKS
MEDFORD        PTSUNNY   67  59  75 S15       30.09F
WAUSAU         CLOUDY    72  58  61 S17       30.09F
MOSINEE        PTSUNNY   66  63  88 S9        30.12F
MARSHFIELD     MOSUNNY   71  60  68 S13G23    30.09F
WISC RAPIDS    CLOUDY    74  61  63 SE12G21   30.11F
STEVENS POINT  CLOUDY    67  60  79 SE8       30.12F
WAUPACA        PTSUNNY   74  60  59 S8        30.14F
SHAWANO        CLOUDY    75  61  61 SW3       30.14F
CLINTONVILLE   CLOUDY   N/A N/A N/A S12G18    30.13F
WAUTOMA        CLOUDY    71  61  70 S10       30.13F
$$

WIZ038-039-048-051-252000-
FOX VALLEY

CITY           SKY/WX    TMP DP  RH WIND       PRES   REMARKS
NWS GREEN BAY  CLOUDY    74  63  68 S14G22    30.16F
APPLETON       PTSUNNY   75  55  50 S12G21    30.16F
OSHKOSH        CLOUDY    75  60  59 S10       30.16F
FOND DU LAC    MOSUNNY   76  58  53 S9        30.17F
$$

WIZ022-050-052-252000-
EAST CENTRAL WISCONSIN

CITY           SKY/WX    TMP DP  RH WIND       PRES   REMARKS
EPHRAIM        MOCLDY    74  62  65 SW3       30.16F
WASHINGTON ISL FAIR      70  62  77 S13G20    30.17F
STURGEON BAY     N/A     73  61  65 S14       30.17F
MANITOWOC      MOSUNNY   74  62  66 S18       30.19S
SHEBOYGAN      PTSUNNY   75  65  70 S12       30.19F
$$

LMZ563-521-522-541>543-252000-
LAKESHORE

STATION/POSITION TIME  TEMP    WIND        PRES    VSBY  WAVE
                       AIR SEA DIR/SP/G                  HT/PER
                 (UTC) (F)     (DEG/KT/KT) (MB)    (MI)  (FT/S)
SHEBOYGAN LKSHOR 1900   69     170/ 15/ 16 1022.1F
KEWAUNEE LKSHORE 1848   69     170/ 15/ 18 1021.3F
NORTHPORT PIER   1840   72     150/  9/ 13 1021.3F
N MID LAKE BUOY  1850   67 67  180/ 14/ 16 1022.5F         1/ 3
S GREEN BAY BUOY 1900   73 72  210/ 14/ 16 1020.6
SISTER BAY LKSHO 1817   75     290/ 11/ 12   N/A
CHAMBERS ISLAND  1840   73     210/  8/ 12 1021.0F
MENOMINEE LKSHOR 1848   72     200/ 12/ 18 1020.8F
$$




USA.gov is the U.S. government's official web portal to all federal, state and local government web resources and services.